Location: Boiro
(42.6475°N, 8.8834°W)
Time: 06:42:59
(UTC+02:00)

NANOSAT C BR1 - Pass Details

Date: 23 August 2022
Orbit: 568 x 582 km, 98.0° (Epoch: 22 September)

Event Time Altitude Azimuth Distance (km) Brightness Sun altitude
Rises 05:56:43 0° 356° (N) 2,841 ? -19.4°
Reaches altitude 10° 05:59:28 10° 337° (NNW) 1,922 ? -19.0°
Enters shadow 06:02:09 18° 297° (WNW) 1,480 ? -18.6°
